Location: Chiroubles
(46.1812°N, 4.6660°E)
Time: 06:40:30
(UTC+00:00)

Transit 2A - All Passes

Search period start: 27 November 2020 00:00
Search period end: 07 December 2020 00:00
Orbit: 595 x 964 km, 66.7° (Epoch: 26 November)

Date Brightness Start Highest point End Pass type
(mag) Time Alt. Az. Time Alt. Az. Time Alt. Az.
27 Nov - 00:10:05 10° N 00:13:28 16° NNE 00:16:39 10° ENE night (unlit)
27 Nov - 01:52:35 10° NNW 01:57:53 63° NE 02:02:36 10° SE night (unlit)
27 Nov - 03:36:57 10° WNW 03:40:25 19° WSW 03:43:40 10° SSW night (unlit)
27 Nov - 16:33:43 10° S 16:39:22 35° ESE 16:44:48 10° NE visible
27 Nov - 18:16:21 10° SW 18:22:29 51° NW 18:28:18 10° NNE visible
27 Nov - 20:03:24 10° WNW 20:07:04 16° NNW 20:10:36 10° N visible
27 Nov - 23:36:13 10° N 23:38:53 13° NNE 23:41:26 10° NE night (unlit)
28 Nov - 01:18:28 10° NNW 01:23:36 45° NE 01:28:12 10° ESE night (unlit)
28 Nov - 03:02:13 10° NW 03:06:30 27° WSW 03:10:27 10° SSW night (unlit)
28 Nov - 16:00:19 10° SSE 16:05:22 26° ESE 16:10:15 10° NE daylight
28 Nov - 17:41:56 10° SW 17:48:14 68° NW 17:54:12 10° NNE visible
28 Nov - 19:28:11 10° WNW 19:32:31 19° NNW 19:36:39 10° NNE visible
28 Nov - 23:02:28 10° N 23:04:14 11° NNE 23:05:58 10° NE night (unlit)
29 Nov - 00:44:24 10° NNW 00:49:16 34° NE 00:53:40 10° ESE night (unlit)
29 Nov - 02:27:43 10° NW 02:32:32 40° WSW 02:36:53 10° S night (unlit)
29 Nov - 15:27:18 10° SE 15:31:25 18° ESE 15:35:27 10° ENE daylight
29 Nov - 17:07:40 10° SSW 17:14:01 88° WNW 17:20:03 10° NNE visible
29 Nov - 18:53:07 10° W 18:58:01 24° NW 19:02:41 10° NNE visible
30 Nov - 00:10:23 10° NNW 00:14:52 26° NE 00:18:58 10° E night (unlit)
30 Nov - 01:53:23 10° NW 01:58:30 59° WSW 02:03:05 10° SSE night (unlit)
30 Nov - 14:55:00 10° SE 14:57:33 13° ESE 15:00:02 10° ENE daylight
30 Nov - 16:33:35 10° SSW 16:39:52 70° ESE 16:45:50 10° NE visible
30 Nov - 18:18:12 10° WSW 18:23:35 30° NW 18:28:41 10° NNE visible
30 Nov - 20:07:08 10° NW 20:08:46 11° NNW 20:10:22 10° N visible
30 Nov - 23:36:24 10° NNW 23:40:24 21° NE 23:44:06 10° E night (unlit)
01 Dec - 01:19:08 10° NW 01:24:23 85° WSW 01:29:04 10° SSE night (unlit)
01 Dec - 03:05:09 10° W 03:06:30 11° W 03:07:49 10° WSW night (unlit)
01 Dec - 15:59:40 10° S 16:05:46 51° ESE 16:11:34 10° NE daylight
01 Dec - 17:43:26 10° WSW 17:49:13 37° NW 17:54:40 10° NNE visible
01 Dec - 19:31:28 10° NW 19:34:07 13° NNW 19:36:41 10° N visible
01 Dec - 23:02:27 10° N 23:05:52 17° NNE 23:09:05 10° ENE night (unlit)
02 Dec - 00:44:58 10° NNW 00:50:12 68° NE 00:54:53 10° SE night (unlit)
02 Dec - 02:29:30 10° WNW 02:32:39 17° WSW 02:35:39 10° SW night (unlit)
02 Dec - 15:25:59 10° S 15:31:42 37° ESE 15:37:11 10° NE daylight
02 Dec - 17:08:49 10° SW 17:14:53 48° NW 17:20:36 10° NNE visible
02 Dec - 18:56:03 10° WNW 18:59:30 15° NNW 19:02:49 10° N visible
02 Dec - 22:28:35 10° N 22:31:17 14° NNE 22:33:52 10° NE night (unlit)
03 Dec - 00:10:50 10° NNW 00:15:57 48° NE 00:20:32 10° SE night (unlit)
03 Dec - 01:54:41 10° NW 01:58:45 25° WSW 02:02:32 10° SSW night (unlit)
03 Dec - 14:52:32 10° SSE 14:57:42 27° ESE 15:02:40 10° NE daylight
03 Dec - 16:34:22 10° SW 16:40:37 64° NW 16:46:30 10° NNE visible
03 Dec - 18:20:48 10° WNW 18:24:57 18° NNW 18:28:54 10° N visible
03 Dec - 21:54:51 10° N 21:56:40 12° NNE 21:58:25 10° NE night (unlit)
03 Dec - 23:36:46 10° NNW 23:41:37 35° NE 23:46:00 10° ESE night (unlit)
04 Dec - 01:20:09 10° NW 01:24:48 36° WSW 01:29:02 10° S night (unlit)
04 Dec - 14:19:26 10° SSE 14:23:44 20° ESE 14:27:56 10° ENE daylight
04 Dec - 16:00:04 10° SW 16:06:24 84° WNW 16:12:21 10° NNE daylight
04 Dec - 17:45:42 10° W 17:50:26 23° NW 17:54:56 10° NNE visible
04 Dec - 23:02:44 10° NNW 23:07:13 27° NE 23:11:20 10° E night (unlit)
05 Dec - 00:45:47 10° NW 00:50:46 54° WSW 00:55:17 10° SSE night (unlit)
05 Dec - 13:46:56 10° SE 13:49:50 14° ESE 13:52:41 10° ENE daylight
05 Dec - 15:25:57 10° SSW 15:32:14 74° ESE 15:38:10 10° NE daylight
05 Dec - 17:10:45 10° W 17:16:00 28° NW 17:20:57 10° NNE visible
05 Dec - 19:00:03 10° NNW 19:01:13 11° NNW 19:02:21 10° N visible
05 Dec - 22:28:45 10° NNW 22:32:46 21° NE 22:36:30 10° E night (unlit)
06 Dec - 00:11:31 10° NW 00:16:41 79° WSW 00:21:18 10° SSE night (unlit)
06 Dec - 14:52:00 10° SSW 14:58:06 54° ESE 15:03:54 10° NE daylight
06 Dec - 16:35:57 10° WSW 16:41:36 35° NW 16:46:56 10° NNE visible
06 Dec - 18:24:13 10° NW 18:26:33 12° NNW 18:28:49 10° N visible
06 Dec - 21:54:49 10° N 21:58:15 17° NNE 22:01:29 10° ENE night (unlit)
06 Dec - 23:37:19 10° NNW 23:42:30 72° NE 23:47:09 10° SE night (unlit)
